Time,TemperatureF,DewpointF,PressureIn,WindDirection,WindDirectionDegrees,WindSpeedMPH,WindSpeedGustMPH,Humidity,HourlyPrecipIn,Conditions,Clouds,dailyrainin,SolarRadiationWatts/m^2,SoftwareType,DateUTC
2013-02-28 00:01:00,27.0,14.0,-100.00,East,94,8.0,11.0,57,-99.99,,,0.00,0.000000,,2013-02-28 07:01:00,
2013-02-28 01:01:00,26.0,13.0,-100.00,East,86,8.0,12.0,58,-99.99,,,0.00,0.000000,,2013-02-28 08:01:00,
2013-02-28 01:31:00,26.0,13.0,-100.00,East,86,8.0,12.0,58,-99.99,,,0.00,0.000000,,2013-02-28 08:31:00,
2013-02-28 01:53:00,27.0,14.0,-100.00,East,100,6.0,15.0,57,0.00,,,0.00,0.000000,,2013-02-28 08:53:00,
2013-02-28 02:03:00,27.0,14.0,-100.00,East,100,6.0,15.0,57,0.00,,,0.00,0.000000,,2013-02-28 09:03:00,
2013-02-28 03:01:00,27.0,14.0,-100.00,ESE,102,3.0,9.0,57,-99.99,,,-99.99,0.000000,,2013-02-28 10:01:00,
2013-02-28 03:52:00,24.0,18.0,-100.00,East,93,8.0,10.0,79,-99.99,,,0.00,0.000000,,2013-02-28 10:52:00,
2013-02-28 04:01:00,24.0,18.0,-100.00,East,93,8.0,10.0,79,-99.99,,,0.00,0.000000,,2013-02-28 11:01:00,
2013-02-28 04:11:00,24.0,18.0,-100.00,East,93,8.0,10.0,79,-99.99,,,0.00,0.000000,,2013-02-28 11:11:00,
2013-02-28 04:21:00,24.0,18.0,-100.00,East,93,8.0,10.0,79,-99.99,,,0.00,0.000000,,2013-02-28 11:21:00,
2013-02-28 04:31:00,24.0,18.0,-100.00,East,93,8.0,10.0,79,-99.99,,,0.00,0.000000,,2013-02-28 11:31:00,
2013-02-28 04:52:00,24.0,22.0,-100.00,ESE,105,6.0,12.0,91,0.00,,,0.00,0.000000,,2013-02-28 11:52:00,
2013-02-28 05:01:00,24.0,22.0,-100.00,ESE,105,6.0,12.0,91,0.00,,,0.00,0.000000,,2013-02-28 12:01:00,
2013-02-28 05:11:00,24.0,22.0,-100.00,ESE,105,6.0,12.0,91,0.00,,,0.00,0.000000,,2013-02-28 12:11:00,
2013-02-28 05:21:00,24.0,22.0,-100.00,ESE,105,6.0,12.0,91,0.00,,,0.00,0.000000,,2013-02-28 12:21:00,
2013-02-28 05:31:00,24.0,22.0,-100.00,ESE,105,6.0,12.0,91,0.00,,,0.00,0.000000,,2013-02-28 12:31:00,
2013-02-28 06:01:00,25.0,22.0,-100.00,East,91,5.0,12.0,89,0.00,,,0.00,0.000000,,2013-02-28 13:01:00,
2013-02-28 06:11:00,25.0,22.0,-100.00,East,91,5.0,12.0,89,0.00,,,0.00,0.000000,,2013-02-28 13:11:00,
2013-02-28 06:21:00,25.0,22.0,-100.00,East,91,5.0,12.0,89,0.00,,,0.00,0.000000,,2013-02-28 13:21:00,
2013-02-28 06:31:00,25.0,22.0,-100.00,East,91,5.0,12.0,89,0.00,,,0.00,0.000000,,2013-02-28 13:31:00,
2013-02-28 07:01:00,26.0,23.0,-100.00,NE,41,1.0,8.0,88,0.00,,,0.00,0.000000,,2013-02-28 14:01:00,
2013-02-28 07:11:00,26.0,23.0,-100.00,NE,41,1.0,8.0,88,0.00,,,0.00,0.000000,,2013-02-28 14:11:00,
2013-02-28 07:21:00,26.0,23.0,-100.00,NE,41,1.0,8.0,88,0.00,,,0.00,0.000000,,2013-02-28 14:21:00,
2013-02-28 07:31:00,26.0,23.0,-100.00,NE,41,1.0,8.0,88,0.00,,,0.00,0.000000,,2013-02-28 14:31:00,
2013-02-28 08:02:00,26.0,22.0,-100.00,ESE,104,3.0,7.0,86,0.00,,,0.00,1.000000,,2013-02-28 15:02:00,
2013-02-28 08:11:00,26.0,22.0,-100.00,ESE,104,3.0,7.0,86,0.00,,,0.00,1.000000,,2013-02-28 15:11:00,
2013-02-28 08:21:00,26.0,22.0,-100.00,ESE,104,3.0,7.0,86,0.00,,,0.00,1.000000,,2013-02-28 15:21:00,
2013-02-28 08:31:00,26.0,22.0,-100.00,ESE,104,3.0,7.0,86,0.00,,,0.00,1.000000,,2013-02-28 15:31:00,
2013-02-28 09:01:00,27.0,24.0,-100.00,East,93,4.0,7.0,90,0.00,,,0.00,35.000000,,2013-02-28 16:01:00,
2013-02-28 09:11:00,27.0,24.0,-100.00,East,93,4.0,7.0,90,0.00,,,0.00,35.000000,,2013-02-28 16:11:00,
2013-02-28 09:21:00,27.0,24.0,-100.00,East,93,4.0,7.0,90,0.00,,,0.00,35.000000,,2013-02-28 16:21:00,
2013-02-28 09:31:00,27.0,24.0,-100.00,East,93,4.0,7.0,90,0.00,,,0.00,35.000000,,2013-02-28 16:31:00,
2013-02-28 10:01:00,29.0,26.0,-100.00,ESE,107,3.0,6.0,87,0.00,,,0.00,114.000000,,2013-02-28 17:01:00,
2013-02-28 10:11:00,29.0,26.0,-100.00,ESE,107,3.0,6.0,87,0.00,,,0.00,114.000000,,2013-02-28 17:11:00,
2013-02-28 10:21:00,29.0,26.0,-100.00,ESE,107,3.0,6.0,87,0.00,,,0.00,114.000000,,2013-02-28 17:21:00,
2013-02-28 10:31:00,29.0,26.0,-100.00,ESE,107,3.0,6.0,87,0.00,,,0.00,114.000000,,2013-02-28 17:31:00,
2013-02-28 10:52:00,33.0,27.0,-100.00,ESE,102,3.0,7.0,78,0.01,,,0.01,221.000000,,2013-02-28 17:52:00,
2013-02-28 11:02:00,33.0,27.0,-100.00,ESE,102,3.0,7.0,78,0.01,,,0.01,221.000000,,2013-02-28 18:02:00,
2013-02-28 11:11:00,33.0,27.0,-100.00,ESE,102,3.0,7.0,78,0.01,,,0.01,221.000000,,2013-02-28 18:11:00,
2013-02-28 11:21:00,33.0,27.0,-100.00,ESE,102,3.0,7.0,78,0.01,,,0.01,221.000000,,2013-02-28 18:21:00,
2013-02-28 11:31:00,33.0,27.0,-100.00,ESE,102,3.0,7.0,78,0.01,,,0.01,221.000000,,2013-02-28 18:31:00,
2013-02-28 12:01:00,33.0,27.0,-100.00,North,9,3.0,8.0,79,0.00,,,0.01,209.000000,,2013-02-28 19:01:00,
2013-02-28 12:11:00,33.0,27.0,-100.00,North,9,3.0,8.0,79,0.00,,,0.01,209.000000,,2013-02-28 19:11:00,
2013-02-28 12:21:00,33.0,27.0,-100.00,North,9,3.0,8.0,79,0.00,,,0.01,209.000000,,2013-02-28 19:21:00,
2013-02-28 12:31:00,33.0,27.0,-100.00,North,9,3.0,8.0,79,0.00,,,0.01,209.000000,,2013-02-28 19:31:00,
2013-02-28 13:01:00,34.0,29.0,-100.00,ESE,110,5.0,8.0,83,0.00,,,0.01,162.000000,,2013-02-28 20:01:00,
2013-02-28 13:12:00,34.0,29.0,-100.00,ESE,110,5.0,8.0,83,0.00,,,0.01,162.000000,,2013-02-28 20:12:00,
2013-02-28 13:21:00,34.0,29.0,-100.00,ESE,110,5.0,8.0,83,0.00,,,0.01,162.000000,,2013-02-28 20:21:00,
2013-02-28 13:31:00,34.0,29.0,-100.00,ESE,110,5.0,8.0,83,0.00,,,0.01,162.000000,,2013-02-28 20:31:00,
2013-02-28 14:01:00,35.0,31.0,-100.00,ESE,105,4.0,10.0,85,0.00,,,0.01,288.000000,,2013-02-28 21:01:00,
2013-02-28 14:11:00,35.0,31.0,-100.00,ESE,105,4.0,10.0,85,0.00,,,0.01,288.000000,,2013-02-28 21:11:00,
2013-02-28 14:22:00,35.0,31.0,-100.00,ESE,105,4.0,10.0,85,0.00,,,0.01,288.000000,,2013-02-28 21:22:00,
2013-02-28 14:31:00,35.0,31.0,-100.00,ESE,105,4.0,10.0,85,0.00,,,0.01,288.000000,,2013-02-28 21:31:00,
2013-02-28 15:01:00,39.0,32.0,-100.00,ESE,121,5.0,10.0,76,0.00,,,0.01,320.000000,,2013-02-28 22:01:00,
2013-02-28 15:11:00,39.0,32.0,-100.00,ESE,121,5.0,10.0,76,0.00,,,0.01,320.000000,,2013-02-28 22:11:00,
2013-02-28 15:21:00,39.0,32.0,-100.00,ESE,121,5.0,10.0,76,0.00,,,0.01,320.000000,,2013-02-28 22:21:00,
2013-02-28 15:31:00,39.0,32.0,-100.00,ESE,121,5.0,10.0,76,0.00,,,0.01,320.000000,,2013-02-28 22:31:00,
2013-02-28 16:01:00,39.0,30.0,-100.00,SE,133,5.0,10.0,71,0.00,,,0.01,258.000000,,2013-02-28 23:01:00,
2013-02-28 16:11:00,39.0,30.0,-100.00,SE,133,5.0,10.0,71,0.00,,,0.01,258.000000,,2013-02-28 23:11:00,
2013-02-28 16:21:00,39.0,30.0,-100.00,SE,133,5.0,10.0,71,0.00,,,0.01,258.000000,,2013-02-28 23:21:00,
2013-02-28 16:31:00,39.0,30.0,-100.00,SE,133,5.0,10.0,71,0.00,,,0.01,258.000000,,2013-02-28 23:31:00,
2013-02-28 17:01:00,36.0,30.0,-100.00,ESE,115,8.0,12.0,78,0.00,,,0.01,179.000000,,2013-03-01 00:01:00,
2013-02-28 17:11:00,36.0,30.0,-100.00,ESE,115,8.0,12.0,78,0.00,,,0.01,179.000000,,2013-03-01 00:11:00,
2013-02-28 17:22:00,36.0,30.0,-100.00,ESE,115,8.0,12.0,78,0.00,,,0.01,179.000000,,2013-03-01 00:22:00,
2013-02-28 17:32:00,36.0,30.0,-100.00,ESE,115,8.0,12.0,78,0.00,,,0.01,179.000000,,2013-03-01 00:32:00,
2013-02-28 17:52:00,37.0,30.0,-100.00,ESE,113,6.0,12.0,75,0.00,,,0.01,160.000000,,2013-03-01 00:52:00,
2013-02-28 18:01:00,37.0,30.0,-100.00,ESE,113,6.0,12.0,75,0.00,,,0.01,160.000000,,2013-03-01 01:01:00,
2013-02-28 18:11:00,37.0,30.0,-100.00,ESE,113,6.0,12.0,75,0.00,,,0.01,160.000000,,2013-03-01 01:11:00,
2013-02-28 18:21:00,37.0,30.0,-100.00,ESE,113,6.0,12.0,75,0.00,,,0.01,160.000000,,2013-03-01 01:21:00,
2013-02-28 18:31:00,37.0,30.0,-100.00,ESE,113,6.0,12.0,75,0.00,,,0.01,160.000000,,2013-03-01 01:31:00,
2013-02-28 18:52:00,35.0,29.0,-100.00,ESE,103,3.0,9.0,78,0.00,,,0.01,28.000000,,2013-03-01 01:52:00,
2013-02-28 19:01:00,35.0,29.0,-100.00,ESE,103,3.0,9.0,78,0.00,,,0.01,28.000000,,2013-03-01 02:01:00,
2013-02-28 19:11:00,35.0,29.0,-100.00,ESE,103,3.0,9.0,78,0.00,,,0.01,28.000000,,2013-03-01 02:11:00,
2013-02-28 19:21:00,35.0,29.0,-100.00,ESE,103,3.0,9.0,78,0.00,,,0.01,28.000000,,2013-03-01 02:21:00,
2013-02-28 19:31:00,35.0,29.0,-100.00,ESE,103,3.0,9.0,78,0.00,,,0.01,28.000000,,2013-03-01 02:31:00,
2013-02-28 19:52:00,34.0,30.0,-100.00,East,95,4.0,7.0,85,0.00,,,0.01,0.000000,,2013-03-01 02:52:00,
2013-02-28 20:01:00,34.0,30.0,-100.00,East,95,4.0,7.0,85,0.00,,,0.01,0.000000,,2013-03-01 03:01:00,
2013-02-28 20:11:00,34.0,30.0,-100.00,East,95,4.0,7.0,85,0.00,,,0.01,0.000000,,2013-03-01 03:11:00,
2013-02-28 20:21:00,34.0,30.0,-100.00,East,95,4.0,7.0,85,0.00,,,0.01,0.000000,,2013-03-01 03:21:00,
2013-02-28 20:32:00,34.0,30.0,-100.00,East,95,4.0,7.0,85,0.00,,,0.01,0.000000,,2013-03-01 03:32:00,
2013-02-28 21:01:00,34.0,30.0,-100.00,East,89,3.0,7.0,86,0.00,,,0.01,0.000000,,2013-03-01 04:01:00,
2013-02-28 21:11:00,34.0,30.0,-100.00,East,89,3.0,7.0,86,0.00,,,0.01,0.000000,,2013-03-01 04:11:00,
2013-02-28 21:21:00,34.0,30.0,-100.00,East,89,3.0,7.0,86,0.00,,,0.01,0.000000,,2013-03-01 04:21:00,
2013-02-28 21:31:00,34.0,30.0,-100.00,East,89,3.0,7.0,86,0.00,,,0.01,0.000000,,2013-03-01 04:31:00,
2013-02-28 21:52:00,33.0,30.0,-100.00,East,82,1.0,5.0,88,0.00,,,0.01,0.000000,,2013-03-01 04:52:00,
2013-02-28 22:02:00,33.0,30.0,-100.00,East,82,1.0,5.0,88,0.00,,,0.01,0.000000,,2013-03-01 05:02:00,
2013-02-28 22:11:00,33.0,30.0,-100.00,East,82,1.0,5.0,88,0.00,,,0.01,0.000000,,2013-03-01 05:11:00,
2013-02-28 22:22:00,33.0,30.0,-100.00,East,82,1.0,5.0,88,0.00,,,0.01,0.000000,,2013-03-01 05:22:00,
2013-02-28 22:32:00,33.0,30.0,-100.00,East,82,1.0,5.0,88,0.00,,,0.01,0.000000,,2013-03-01 05:32:00,
2013-02-28 22:52:00,33.0,30.0,-100.00,East,95,2.0,4.0,88,0.00,,,0.01,0.000000,,2013-03-01 05:52:00,
2013-02-28 23:02:00,33.0,30.0,-100.00,East,95,2.0,4.0,88,0.00,,,0.01,0.000000,,2013-03-01 06:02:00,
2013-02-28 23:11:00,33.0,30.0,-100.00,East,95,2.0,4.0,88,0.00,,,0.01,0.000000,,2013-03-01 06:11:00,
2013-02-28 23:21:00,33.0,30.0,-100.00,East,95,2.0,4.0,88,0.00,,,0.01,0.000000,,2013-03-01 06:21:00,
2013-02-28 23:31:00,33.0,30.0,-100.00,East,95,2.0,4.0,88,0.00,,,0.01,0.000000,,2013-03-01 06:31:00,
2013-02-28 23:52:00,33.0,31.0,-100.00,NW,319,0.0,3.0,93,0.00,,,0.01,0.000000,,2013-03-01 06:52:00,